Location: Wien
(48.2082°N, 16.3738°E)
Time: 11:40:10
(UTC+02:00)

Tiros 1 despin weight - Pass Details

Date: 18 September 2024
Orbit: 573 x 615 km, 48.2° (Epoch: 06 October)

Event Time Altitude Azimuth Distance (km) Brightness Sun altitude
Rises 09:36:22 0° 279° (W) 2,889 ? 27.8°
Reaches altitude 10° 09:39:45 10° 253° (WSW) 1,976 ? 28.3°
Maximum altitude 09:41:57 13° 224° (SW) 1,752 ? 28.6°
Drops below altitude 10° 09:44:09 10° 194° (SSW) 1,964 ? 28.9°
Sets 09:47:30 0° 168° (SSE) 2,855 ? 29.3°
